Simultaneous Nadir Overpasses (SNOs) Predictions

Prediction of SNOs between LANDSAT-8 and METOP-B Satellite Orbit:

Table of predicted SNOs for the next 14.0 days since TLE Epoch: 1/26/2019
Index Date (LANDSAT-8) Time (LANDSAT-8) Lat,Lon (LANDSAT-8) SZA (LANDSAT-8 ) Date (METOP-B) Time (METOP-B) Lat,Lon (METOP-B) SZA (METOP-B ) Distance(km) Time Diff (sec)
1 01/27/2019 22:39:43 -81.09, 59.21 78.99 01/27/2019 22:38:42 -81.08, 59.12 79.02 1.51 61
2 01/27/2019 23:29:08 81.11,-132.74 101.07 01/27/2019 23:29:20 81.11,-132.68 101.07 0.92 12
3 01/30/2019 18:13:57 -81.09, 125.78 79.73 01/30/2019 18:13:06 -81.09, 125.71 79.76 1.43 51
4 01/30/2019 19:03:23 81.10, -66.55 100.27 01/30/2019 19:03:45 81.10, -66.50 100.29 1.20 22
5 02/02/2019 13:48:12 -81.08,-168.03 80.57 02/02/2019 13:47:31 -81.08,-168.09 80.59 1.03 41
6 02/02/2019 14:37:37 81.10, -0.02 99.48 02/02/2019 14:38:09 81.11, 0.06 99.50 1.58 32
7 02/05/2019 09:22:26 -81.08,-101.51 81.40 02/05/2019 09:21:55 -81.09,-101.53 81.41 0.43 31
8 02/05/2019 10:11:51 81.11, 66.48 98.65 02/05/2019 10:12:33 81.11, 66.61 98.68 2.27 42
9 02/08/2019 04:56:39 -81.09, -35.01 82.26 02/08/2019 04:56:18 -81.09, -34.98 82.26 0.57 21




NCC Satellite Simultaneous Nadir Overpasses (SNOs) Prediction Service
